TimeCET,TemperatureF,Dew PointF,Humidity,Sea Level PressureIn,VisibilityMPH,Wind Direction,Wind SpeedMPH,Gust SpeedMPH,PrecipitationIn,Events,Conditions,WindDirDegrees,DateUTC
12:00 AM,30.2,23.0,75,30.04,6.2,WNW,6.9,-,N/A,,Overcast,300,2013-03-21 23:00:00
1:00 AM,30.2,24.8,80,30.04,6.2,NW,5.8,-,N/A,,Mostly Cloudy,320,2013-03-22 00:00:00
2:00 AM,30.2,23.0,75,30.04,6.2,WNW,4.6,-,N/A,,Mostly Cloudy,300,2013-03-22 01:00:00
3:00 AM,30.2,24.8,80,30.04,6.2,WNW,6.9,-,N/A,,Mostly Cloudy,300,2013-03-22 02:00:00
4:00 AM,30.2,24.8,80,30.04,6.2,WNW,5.8,-,N/A,,Mostly Cloudy,300,2013-03-22 03:00:00
5:00 AM,30.2,24.8,80,30.01,6.2,WNW,5.8,-,N/A,,Overcast,300,2013-03-22 04:00:00
6:00 AM,28.4,24.8,86,30.01,5.0,WNW,8.1,-,N/A,Snow,Light Snow,300,2013-03-22 05:00:00
7:00 AM,28.4,24.8,86,30.04,4.3,NW,4.6,-,N/A,Snow,Light Snow,320,2013-03-22 06:00:00
7:10 AM,28.4,24.8,86,30.04,2.5,NW,5.8,-,N/A,Snow,Light Snow,310,2013-03-22 06:10:00
7:35 AM,28.4,24.8,86,30.04,1.9,NW,5.8,-,N/A,Snow,Light Snow,310,2013-03-22 06:35:00
8:00 AM,28.4,24.8,86,30.04,1.2,NW,4.6,-,N/A,Snow,Light Snow,310,2013-03-22 07:00:00
9:00 AM,28.4,24.8,86,30.04,1.2,NW,6.9,-,N/A,Snow,Light Snow,310,2013-03-22 08:00:00
9:11 AM,28.4,24.8,86,30.06,1.9,NW,9.2,-,N/A,Snow,Light Snow,310,2013-03-22 08:11:00
10:00 AM,28.4,23.0,80,30.06,3.1,NW,9.2,-,N/A,Snow,Light Snow,310,2013-03-22 09:00:00
11:00 AM,30.2,23.0,75,30.06,3.7,WNW,9.2,-,N/A,Snow,Light Snow,300,2013-03-22 10:00:00
12:00 PM,30.2,21.2,69,30.06,4.3,WNW,8.1,-,N/A,Snow,Light Snow,300,2013-03-22 11:00:00
12:15 PM,32.0,21.2,64,30.06,5.0,NW,6.9,-,N/A,Snow,Light Snow,310,2013-03-22 11:15:00
1:00 PM,33.8,21.2,60,30.04,6.2,West,8.1,-,N/A,,Mostly Cloudy,280,2013-03-22 12:00:00
2:00 PM,32.0,23.0,69,30.04,6.2,NE,6.9,-,N/A,Snow,Light Snow Showers,40,2013-03-22 13:00:00
3:00 PM,32.0,21.2,64,30.04,6.2,NE,4.6,-,N/A,,Overcast,40,2013-03-22 14:00:00
4:00 PM,32.0,21.2,64,30.06,6.2,NE,6.9,-,N/A,Snow,Light Snow,40,2013-03-22 15:00:00
5:00 PM,32.0,19.4,60,30.06,6.2,NE,10.4,-,N/A,,Overcast,50,2013-03-22 16:00:00
6:00 PM,30.2,17.6,60,30.06,6.2,NE,8.1,-,N/A,,Overcast,50,2013-03-22 17:00:00
7:00 PM,28.4,17.6,64,30.09,6.2,NE,5.8,-,N/A,,Overcast,50,2013-03-22 18:00:00
8:00 PM,28.4,19.4,69,30.09,6.2,NE,3.5,-,N/A,,Mostly Cloudy,50,2013-03-22 19:00:00
9:00 PM,28.4,19.4,69,30.09,6.2,NE,5.8,-,N/A,,Mostly Cloudy,50,2013-03-22 20:00:00
10:00 PM,28.4,19.4,69,30.09,6.2,NE,8.1,-,N/A,,Mostly Cloudy,40,2013-03-22 21:00:00
11:00 PM,26.6,19.4,74,30.09,6.2,NE,8.1,-,N/A,,Mostly Cloudy,40,2013-03-22 22:00:00